Weather History for KLAX - December, 2012

Change the Weather History Date:

Friday, December 7, 2012

  Actual Average Record
Temperature  
Mean Temperature 59 °F 57 °F  
Max Temperature 63 °F 65 °F 82 °F (1989)
Min Temperature 54 °F 49 °F 37 °F (1998)
Degree Days  
Heating Degree Days 6 8  
Month to date heating degree days 27 53  
Since 1 July heating degree days 131 235  
Cooling Degree Days 0 0  
Month to date cooling degree days 0 0  
Year to date cooling degree days 735 550  
Growing Degree Days 8 (Base 50)    
Moisture  
Dew Point 55 °F    
Average Humidity 89    
Maximum Humidity 100    
Minimum Humidity 78    
Precipitation  
Precipitation 0.00 in 0.05 in 1.71 in (1992)
Month to date precipitation 0.26 0.36  
Year to date precipitation 6.33 11.13  
Since 1 July precipitation 1.72 2.32  
Sea Level Pressure  
Sea Level Pressure 29.94 in    
Wind  
Wind Speed 4 mph (WSW)    
Max Wind Speed 12 mph    
Max Gust Speed 18 mph    
Visibility 2 miles    
Events Fog    
T = Trace of Precipitation, MM = Missing Value Source: NWS Daily Summary

Daily Weather History Graph

Daily Weather History Graph

Search for Another Location

Airport or City:

Trip Planner

Search our weather history database for the weather conditions in past years. The results will help you decide how hot, cold, wet, or windy it might be!

Date:

Astronomy

Dec. 07, 2012 Rise Set
Actual Time 6:46 AM PST 4:44 PM PST
Civil Twilight 6:18 AM PST 5:12 PM PST
Nautical Twilight 5:47 AM PST 5:43 PM PST
Astronomical Twilight 5:17 AM PST 6:13 PM PST
Moon 12:25 AM PST (12/7) 12:30 PM PST (12/7)
Length of Visible Light 10h 53m
Length of Day
9h 58m
Last Quarter, 37% of the Moon is Illuminated
Dec 7
Last Quarter
Dec 13
New
Dec 19
First Quarter
Dec 28
Full
Jan 4
Last Quarter

Hourly Weather History & Observations

Time (PST) Temp. Dew Point Humidity Pressure Visibility Wind Dir Wind Speed Gust Speed Precip Events Conditions
12:53 AM 57.2 °F 55.4 °F 94% 29.92 in 3.0 mi East 5.8 mph - N/A Fog Patches of Fog
1:19 AM 55.4 °F 55.4 °F 100% 29.93 in 2.0 mi East 3.5 mph - N/A Fog Patches of Fog
1:53 AM 55.9 °F 55.0 °F 97% 29.93 in 1.5 mi ESE 3.5 mph - N/A Fog Patches of Fog
2:53 AM 55.9 °F 55.0 °F 97% 29.92 in 1.5 mi Calm Calm - N/A Fog Patches of Fog
3:28 AM 55.4 °F 55.4 °F 100% 29.92 in 0.2 mi SE 3.5 mph - N/A Fog Fog
3:36 AM 55.4 °F 55.4 °F 100% 29.92 in 0.1 mi SE 3.5 mph - N/A Fog Fog
3:49 AM 55.4 °F 55.4 °F 100% 29.93 in 0.1 mi Calm Calm - N/A Fog Fog
3:53 AM 55.0 °F 55.0 °F 100% 29.93 in 0.1 mi Calm Calm - N/A Fog Fog
4:53 AM 55.0 °F 55.0 °F 100% 29.92 in 0.1 mi East 3.5 mph - N/A Fog Fog
5:53 AM 55.9 °F 55.0 °F 97% 29.94 in 0.1 mi SE 3.5 mph - N/A Fog Fog
6:36 AM 55.4 °F 55.4 °F 100% 29.95 in 0.1 mi Calm Calm - N/A Fog Fog
6:53 AM 55.9 °F 55.9 °F 100% 29.95 in 0.1 mi Variable 3.5 mph - N/A Fog Fog
7:53 AM 54.0 °F 54.0 °F 100% 29.96 in 0.1 mi Calm Calm - N/A Fog Fog
8:53 AM 54.0 °F 54.0 °F 100% 29.98 in 0.2 mi Calm Calm - N/A Fog Fog
9:16 AM 53.6 °F 53.6 °F 100% 29.99 in 0.2 mi Calm Calm - N/A Fog Fog
9:44 AM 55.4 °F 55.4 °F 100% 30.00 in 0.5 mi Calm Calm - N/A Fog Fog
9:53 AM 55.0 °F 55.0 °F 100% 29.99 in 0.8 mi Calm Calm - N/A   Overcast
10:49 AM 60.8 °F 55.4 °F 82% 29.98 in 0.8 mi Calm Calm - N/A   Mostly Cloudy
10:53 AM 60.1 °F 55.9 °F 86% 29.98 in 1.0 mi Calm Calm - N/A   Mostly Cloudy
11:10 AM 60.8 °F 55.4 °F 82% 29.98 in 1.8 mi Calm Calm - N/A   Scattered Clouds
11:43 AM 60.8 °F 55.4 °F 82% 29.96 in 2.0 mi West 8.1 mph - N/A Fog Patches of Fog
11:53 AM 61.0 °F 55.9 °F 83% 29.96 in 2.0 mi West 10.4 mph - N/A Fog Patches of Fog
12:19 PM 59.0 °F 55.4 °F 88% 29.96 in 1.5 mi West 11.5 mph - N/A Fog Patches of Fog
12:29 PM 59.0 °F 55.4 °F 88% 29.96 in 2.0 mi West 9.2 mph - N/A Fog Patches of Fog
12:53 PM 61.0 °F 55.0 °F 81% 29.95 in 2.5 mi WNW 6.9 mph - N/A Fog Patches of Fog
1:33 PM 60.8 °F 55.4 °F 82% 29.94 in 3.0 mi West 9.2 mph - N/A   Partly Cloudy
1:53 PM 62.1 °F 55.9 °F 80% 29.93 in 4.0 mi West 9.2 mph - N/A   Haze
2:53 PM 62.1 °F 55.9 °F 80% 29.93 in 3.0 mi WNW 5.8 mph - N/A   Haze
3:53 PM 61.0 °F 55.9 °F 83% 29.92 in 3.0 mi West 9.2 mph - N/A   Haze
4:41 PM 60.8 °F 55.4 °F 82% 29.92 in 2.0 mi West 6.9 mph - N/A   Haze
4:53 PM 60.1 °F 55.9 °F 86% 29.92 in 2.0 mi West 4.6 mph - N/A   Scattered Clouds
5:35 PM 60.8 °F 55.4 °F 82% 29.92 in 5.0 mi West 6.9 mph - N/A   Partly Cloudy
5:53 PM 60.1 °F 55.9 °F 86% 29.92 in 6.0 mi WNW 8.1 mph - N/A   Partly Cloudy
6:53 PM 60.1 °F 55.9 °F 86% 29.94 in 4.0 mi West 3.5 mph - N/A   Scattered Clouds
7:53 PM 60.1 °F 57.0 °F 90% 29.94 in 6.0 mi WSW 4.6 mph - N/A   Partly Cloudy
8:53 PM 60.1 °F 57.0 °F 90% 29.94 in 4.0 mi SE 3.5 mph - N/A   Partly Cloudy
9:53 PM 59.0 °F 57.0 °F 93% 29.94 in 4.0 mi South 3.5 mph - N/A   Partly Cloudy
10:53 PM 57.9 °F 55.9 °F 93% 29.94 in 4.0 mi Calm Calm - N/A   Clear
11:53 PM 57.9 °F 55.0 °F 90% 29.94 in 3.0 mi Calm Calm - N/A   Partly Cloudy